Powrót do katalogu

TIANYAN 23

AktywnyNaukaSSO
NORAD 63209·PAYLOAD·🇨🇳 China

Wystrzelony Mar 15, 2025 z Jiuquan Satellite Launch Center

Loading…

Następne Przeloty (najbliższe 24 godziny)

TLE

ŚwieżeSource: Space-Track

Epoka: Sep 14, 2026, 13:47 UTC

1 63209U 25051B   26257.57442910  .00033448  00000-0  50940-3 0  9990
2 63209  97.4491 347.9964 0005716 123.2952 236.8850 15.54421192 84223

Śledź TIANYAN 23 w czasie rzeczywistym z AllMySat

Download on the App Store